Flag for Cambodia Weather past 2 weeks in Battambang, Cambodia

Now
77 °F

Light rain. Passing clouds.


Feels Like: 78 °F
Forecast: 75 / 91 °F
Wind: No wind

Location: Siemreap

Current Time: Oct 1, 2014 at 8:16:47 PM

Latest Report: Oct 1, 2014 at 7:30 PM


Visibility: 5 mi

Pressure: 29.77 "Hg

Humidity: 89%

Dew point: 73 °F

Location of BattambangLocation

Historic Weather in Battambang — Graph

°F

Battambang temperature yesterday

Maximum temperature yesterday: 86 °F (at 3:00 PM)
Minimum temperature yesterday: 79 °F (at 12:00 AM)
Average temperature yesterday: 81 °F

Past Weeks' High & Low Weather Summary

 TemperatureHumidityPressure
High91 °F (Sep 19, 4:30 PM)94% (Sep 16, 7:00 PM)29.89 "Hg (Sep 16, 7:00 PM)
Low75 °F (Oct 1, 6:00 PM)19% (Sep 30, 1:00 PM)29.56 "Hg (Sep 16, 7:00 PM)
Average84 °F76%29.78 "Hg
* Reported Sep 16 7:00 PM — Oct 1 7:00 PM, Battambang, Weather by CustomWeather, © 2014

Note: Actual official high and low records may vary slightly from our data, if they occured in-between our weather recording intervals... More about our weather records

Advertising

Battambang weather history for previous 24 hours

 ConditionsComfort  
Time TempWeatherWind HumidityBarometerVisibility
7:00 PM
Oct 1
77 °FLight rain. Passing clouds.No wind89%29.77 "Hg5 mi
6:30 PM77 °FLight rain. Passing clouds.No wind89%29.77 "Hg5 mi
6:00 PM75 °FThunderstorms. Passing clouds.6 mph89%29.77 "Hg4 mi
5:30 PM84 °FThunderstorms. Scattered clouds.9 mph70%29.74 "Hg3 mi
5:00 PM90 °FScattered clouds.5 mph63%29.71 "HgN/A
4:30 PM88 °FScattered clouds.6 mph66%29.71 "HgN/A
4:00 PM88 °FScattered clouds.6 mph66%29.71 "HgN/A
3:30 PM88 °FScattered clouds.7 mph66%29.71 "HgN/A
3:00 PM88 °FScattered clouds.3 mph66%29.71 "HgN/A
2:30 PM90 °FScattered clouds.2 mph63%29.71 "HgN/A
2:00 PM88 °FScattered clouds.3 mph66%29.74 "HgN/A
1:30 PM86 °FScattered clouds.3 mph70%29.74 "HgN/A
12:30 PM88 °FScattered clouds.3 mph66%29.80 "HgN/A
12:00 PM88 °FScattered clouds.1 mph59%29.80 "HgN/A
11:30 AM88 °FScattered clouds.2 mph62%29.83 "HgN/A
11:00 AM86 °FScattered clouds.3 mph66%29.83 "HgN/A
10:30 AM84 °FScattered clouds.6 mph70%29.86 "HgN/A
9:30 AM81 °FScattered clouds.6 mph79%29.89 "HgN/A
9:00 AM81 °FScattered clouds.7 mph79%29.89 "HgN/A
8:30 AM81 °FScattered clouds.6 mph84%29.86 "HgN/A
8:00 AM79 °FScattered clouds.3 mph89%29.86 "HgN/A
7:30 AM79 °FScattered clouds.5 mph89%29.83 "HgN/A
7:00 AM79 °FScattered clouds.3 mph89%29.83 "HgN/A
1:00 AM79 °FPassing clouds.No wind89%N/A6 mi
12:30 AM79 °FPassing clouds.No wind89%29.83 "Hg6 mi
12:00 AM79 °FPassing clouds.No wind89%29.83 "Hg6 mi
11:30 PM
Sep 30
79 °FPassing clouds.3 mph89%29.83 "Hg6 mi
11:00 PM79 °FPassing clouds.3 mph89%29.83 "Hg6 mi
10:30 PM79 °FPassing clouds.3 mph89%29.83 "Hg6 mi
10:00 PM79 °FPassing clouds.No wind89%29.80 "Hg6 mi
9:30 PM79 °FLight rain. Passing clouds.No wind89%29.80 "Hg6 mi
9:00 PM79 °FLight rain. Passing clouds.No wind89%29.80 "Hg6 mi
8:00 PM79 °FLight rain. Passing clouds.7 mph89%29.80 "Hg6 mi
Weather by CustomWeather, © 2014

See weather overviewHow to use our weather pages